Time,TemperatureF,DewpointF,PressureIn,WindDirection,WindDirectionDegrees,WindSpeedMPH,WindSpeedGustMPH,Humidity,HourlyPrecipIn,Conditions,Clouds,dailyrainin,SoftwareType,DateUTC
2013-01-20 00:02:00,33.0,-3.0,-100.00,North,0,4.0,11.0,21,-99.99,,,-99.99,,2013-01-20 07:02:00,
2013-01-20 00:12:00,32.0,-3.0,-100.00,South,185,3.0,9.0,21,-99.99,,,-99.99,,2013-01-20 07:12:00,
2013-01-20 00:22:00,33.0,-3.0,-100.00,NNE,25,4.0,6.0,21,-99.99,,,-99.99,,2013-01-20 07:22:00,
2013-01-20 00:32:00,31.0,-3.0,-100.00,NE,40,2.0,4.0,21,-99.99,,,-99.99,,2013-01-20 07:32:00,
2013-01-20 00:42:00,31.0,-3.0,-100.00,NE,40,2.0,4.0,22,-99.99,,,-99.99,,2013-01-20 07:42:00,
2013-01-20 00:52:00,31.0,-3.0,-100.00,NNE,25,4.0,4.0,22,-99.99,,,-99.99,,2013-01-20 07:52:00,
2013-01-20 01:02:00,30.0,-3.0,-100.00,SSE,165,1.0,5.0,22,-99.99,,,-99.99,,2013-01-20 08:02:00,
2013-01-20 01:12:00,31.0,-3.0,-100.00,South,170,1.0,4.0,22,-99.99,,,-99.99,,2013-01-20 08:12:00,
2013-01-20 01:22:00,33.0,-1.0,-100.00,WSW,255,4.0,7.0,22,-99.99,,,-99.99,,2013-01-20 08:22:00,
2013-01-20 01:32:00,34.0,-1.0,-100.00,North,350,2.0,7.0,22,-99.99,,,-99.99,,2013-01-20 08:32:00,
2013-01-20 01:42:00,34.0,-1.0,-100.00,NW,305,4.0,7.0,21,-99.99,,,-99.99,,2013-01-20 08:42:00,
2013-01-20 01:52:00,36.0,-1.0,-100.00,NW,315,6.0,9.0,20,-99.99,,,-99.99,,2013-01-20 08:52:00,
2013-01-20 02:02:00,33.0,-2.0,-100.00,NW,315,6.0,9.0,21,-99.99,,,-99.99,,2013-01-20 09:02:00,
2013-01-20 02:12:00,36.0,0.0,-100.00,WNW,295,11.0,14.0,20,-99.99,,,-99.99,,2013-01-20 09:12:00,
2013-01-20 02:22:00,36.0,-1.0,-100.00,WNW,300,12.0,14.0,20,-99.99,,,-99.99,,2013-01-20 09:22:00,
2013-01-20 02:33:00,37.0,-1.0,-100.00,WNW,285,15.0,20.0,19,-99.99,,,-99.99,,2013-01-20 09:33:00,
2013-01-20 02:42:00,38.0,0.0,-100.00,West,275,14.0,21.0,19,-99.99,,,-99.99,,2013-01-20 09:42:00,
2013-01-20 02:52:00,39.0,0.0,-100.00,West,275,16.0,24.0,18,-99.99,,,-99.99,,2013-01-20 09:52:00,
2013-01-20 03:02:00,39.0,0.0,-100.00,West,280,15.0,22.0,18,-99.99,,,-99.99,,2013-01-20 10:02:00,
2013-01-20 03:12:00,39.0,0.0,-100.00,West,265,16.0,21.0,18,-99.99,,,-99.99,,2013-01-20 10:12:00,
2013-01-20 03:22:00,39.0,-1.0,-100.00,WNW,285,17.0,32.0,18,-99.99,,,-99.99,,2013-01-20 10:22:00,
2013-01-20 03:32:00,37.0,-1.0,-100.00,WNW,285,17.0,22.0,18,-99.99,,,-99.99,,2013-01-20 10:32:00,
2013-01-20 03:42:00,37.0,-2.0,-100.00,WNW,290,14.0,19.0,18,-99.99,,,-99.99,,2013-01-20 10:42:00,
2013-01-20 03:52:00,36.0,-2.0,-100.00,West,280,16.0,20.0,18,-99.99,,,-99.99,,2013-01-20 10:52:00,
2013-01-20 04:02:00,37.0,-2.0,-100.00,West,270,17.0,22.0,18,-99.99,,,-99.99,,2013-01-20 11:02:00,
2013-01-20 04:12:00,37.0,-1.0,-100.00,West,265,14.0,20.0,18,-99.99,,,-99.99,,2013-01-20 11:12:00,
2013-01-20 04:22:00,37.0,-2.0,-100.00,WNW,285,14.0,21.0,18,-99.99,,,-99.99,,2013-01-20 11:22:00,
2013-01-20 04:32:00,36.0,-2.0,-100.00,WNW,290,11.0,17.0,18,-99.99,,,-99.99,,2013-01-20 11:32:00,
2013-01-20 04:42:00,35.0,-3.0,-100.00,WNW,300,9.0,16.0,19,-99.99,,,-99.99,,2013-01-20 11:42:00,
2013-01-20 04:53:00,33.0,-3.0,-100.00,NW,310,9.0,14.0,20,-99.99,,,-99.99,,2013-01-20 11:53:00,
2013-01-20 05:03:00,32.0,-3.0,-100.00,NW,320,12.0,14.0,20,-99.99,,,-99.99,,2013-01-20 12:03:00,
2013-01-20 05:12:00,32.0,-3.0,-100.00,NW,320,12.0,14.0,20,-99.99,,,-99.99,,2013-01-20 12:12:00,
2013-01-20 05:22:00,32.0,-3.0,-100.00,NW,305,13.0,16.0,21,-99.99,,,-99.99,,2013-01-20 12:22:00,
2013-01-20 05:33:00,31.0,-3.0,-100.00,NW,325,11.0,16.0,21,-99.99,,,-99.99,,2013-01-20 12:33:00,
2013-01-20 05:52:00,31.0,-3.0,-100.00,NW,310,11.0,14.0,22,-99.99,,,-99.99,,2013-01-20 12:52:00,
2013-01-20 06:02:00,31.0,-3.0,-100.00,NW,320,11.0,14.0,22,-99.99,,,-99.99,,2013-01-20 13:02:00,
2013-01-20 06:12:00,31.0,-3.0,-100.00,NW,315,11.0,14.0,22,-99.99,,,-99.99,,2013-01-20 13:12:00,
2013-01-20 06:23:00,30.0,-4.0,-100.00,NNW,340,9.0,12.0,22,-99.99,,,-99.99,,2013-01-20 13:23:00,
2013-01-20 06:33:00,30.0,-3.0,-100.00,North,350,13.0,19.0,22,-99.99,,,-99.99,,2013-01-20 13:33:00,
2013-01-20 06:42:00,32.0,-2.0,-100.00,NNW,340,11.0,15.0,22,-99.99,,,-99.99,,2013-01-20 13:42:00,
2013-01-20 06:52:00,32.0,-2.0,-100.00,NNW,330,9.0,15.0,22,-99.99,,,-99.99,,2013-01-20 13:52:00,
2013-01-20 07:02:00,31.0,-3.0,-100.00,NNW,330,9.0,12.0,22,-99.99,,,-99.99,,2013-01-20 14:02:00,
2013-01-20 07:12:00,32.0,-3.0,-100.00,NW,320,11.0,13.0,22,-99.99,,,-99.99,,2013-01-20 14:12:00,
2013-01-20 07:22:00,30.0,-3.0,-100.00,NW,310,6.0,11.0,22,-99.99,,,-99.99,,2013-01-20 14:22:00,
2013-01-20 07:33:00,29.0,-4.0,-100.00,WNW,300,4.0,8.0,23,-99.99,,,-99.99,,2013-01-20 14:33:00,
2013-01-20 07:42:00,28.0,-4.0,-100.00,SW,215,2.0,6.0,24,-99.99,,,-99.99,,2013-01-20 14:42:00,
2013-01-20 07:52:00,27.0,-5.0,-100.00,South,180,2.0,3.0,24,-99.99,,,-99.99,,2013-01-20 14:52:00,
2013-01-20 08:03:00,27.0,-5.0,-100.00,South,180,4.0,6.0,24,-99.99,,,-99.99,,2013-01-20 15:03:00,
2013-01-20 08:12:00,28.0,-3.0,-100.00,West,270,4.0,8.0,25,-99.99,,,-99.99,,2013-01-20 15:12:00,
2013-01-20 08:23:00,28.0,-3.0,-100.00,SW,230,6.0,11.0,26,-99.99,,,-99.99,,2013-01-20 15:23:00,
2013-01-20 08:33:00,27.0,-2.0,-100.00,WSW,245,7.0,9.0,26,-99.99,,,-99.99,,2013-01-20 15:33:00,
2013-01-20 08:42:00,29.0,0.0,-100.00,NW,320,9.0,12.0,28,-99.99,,,-99.99,,2013-01-20 15:42:00,
2013-01-20 08:52:00,29.0,1.0,-100.00,NW,315,6.0,12.0,28,-99.99,,,-99.99,,2013-01-20 15:52:00,
2013-01-20 09:03:00,30.0,2.0,-100.00,NW,325,9.0,11.0,29,-99.99,,,-99.99,,2013-01-20 16:03:00,
2013-01-20 09:12:00,29.0,2.0,-100.00,NW,320,7.0,11.0,30,-99.99,,,-99.99,,2013-01-20 16:12:00,
2013-01-20 09:23:00,30.0,3.0,-100.00,North,355,3.0,7.0,30,-99.99,,,-99.99,,2013-01-20 16:23:00,
2013-01-20 09:33:00,31.0,4.0,-100.00,North,0,4.0,11.0,30,-99.99,,,-99.99,,2013-01-20 16:33:00,
2013-01-20 09:52:00,31.0,4.0,-100.00,NW,315,7.0,12.0,31,-99.99,,,-99.99,,2013-01-20 16:52:00,
2013-01-20 10:03:00,31.0,5.0,-100.00,NW,305,4.0,13.0,32,-99.99,,,-99.99,,2013-01-20 17:03:00,
2013-01-20 10:12:00,33.0,6.0,-100.00,WNW,285,4.0,11.0,31,-99.99,,,-99.99,,2013-01-20 17:12:00,
2013-01-20 10:22:00,31.0,5.0,-100.00,NNW,340,10.0,12.0,32,-99.99,,,-99.99,,2013-01-20 17:22:00,
2013-01-20 10:33:00,31.0,5.0,-100.00,NNW,335,7.0,14.0,32,-99.99,,,-99.99,,2013-01-20 17:33:00,
2013-01-20 10:42:00,31.0,5.0,-100.00,West,270,5.0,10.0,32,-99.99,,,-99.99,,2013-01-20 17:42:00,
2013-01-20 10:52:00,32.0,6.0,-100.00,North,0,7.0,10.0,32,-99.99,,,-99.99,,2013-01-20 17:52:00,
2013-01-20 11:03:00,32.0,5.0,-100.00,NW,315,9.0,12.0,32,-99.99,,,-99.99,,2013-01-20 18:03:00,
2013-01-20 11:12:00,31.0,5.0,-100.00,NNW,335,9.0,14.0,32,-99.99,,,-99.99,,2013-01-20 18:12:00,
2013-01-20 11:23:00,31.0,6.0,-100.00,North,0,10.0,13.0,34,-99.99,,,-99.99,,2013-01-20 18:23:00,
2013-01-20 11:33:00,30.0,6.0,-100.00,NNE,15,11.0,14.0,34,-99.99,,,-99.99,,2013-01-20 18:33:00,
2013-01-20 11:42:00,30.0,6.0,-100.00,North,10,10.0,13.0,35,-99.99,,,-99.99,,2013-01-20 18:42:00,
2013-01-20 11:53:00,30.0,7.0,-100.00,North,10,7.0,12.0,35,-99.99,,,-99.99,,2013-01-20 18:53:00,
2013-01-20 12:02:00,31.0,7.0,-100.00,NNE,15,6.0,11.0,35,-99.99,,,-99.99,,2013-01-20 19:02:00,
2013-01-20 12:12:00,31.0,7.0,-100.00,NE,40,6.0,10.0,35,-99.99,,,-99.99,,2013-01-20 19:12:00,
2013-01-20 12:22:00,31.0,7.0,-100.00,North,0,6.0,9.0,35,-99.99,,,-99.99,,2013-01-20 19:22:00,
2013-01-20 12:33:00,31.0,7.0,-100.00,North,355,3.0,6.0,34,-99.99,,,-99.99,,2013-01-20 19:33:00,
2013-01-20 12:42:00,31.0,7.0,-100.00,NNW,340,7.0,9.0,34,-99.99,,,-99.99,,2013-01-20 19:42:00,
2013-01-20 12:52:00,31.0,7.0,-100.00,NW,305,8.0,10.0,34,-99.99,,,-99.99,,2013-01-20 19:52:00,
2013-01-20 13:03:00,32.0,7.0,-100.00,North,0,7.0,9.0,34,-99.99,,,-99.99,,2013-01-20 20:03:00,
2013-01-20 13:12:00,32.0,7.0,-100.00,NW,310,7.0,9.0,34,-99.99,,,-99.99,,2013-01-20 20:12:00,
2013-01-20 13:22:00,33.0,8.0,-100.00,WNW,295,7.0,11.0,34,-99.99,,,-99.99,,2013-01-20 20:22:00,
2013-01-20 13:33:00,33.0,8.0,-100.00,NNW,340,4.0,11.0,34,-99.99,,,-99.99,,2013-01-20 20:33:00,
2013-01-20 13:42:00,34.0,8.0,-100.00,NW,320,4.0,8.0,33,-99.99,,,-99.99,,2013-01-20 20:42:00,
2013-01-20 13:53:00,34.0,8.0,-100.00,West,270,6.0,11.0,32,-99.99,,,-99.99,,2013-01-20 20:53:00,
2013-01-20 14:03:00,35.0,8.0,-100.00,NW,325,6.0,9.0,32,-99.99,,,-99.99,,2013-01-20 21:03:00,
2013-01-20 14:13:00,35.0,8.0,-100.00,West,270,9.0,14.0,32,-99.99,,,-99.99,,2013-01-20 21:13:00,
2013-01-20 14:23:00,34.0,7.0,-100.00,NW,310,7.0,12.0,32,-99.99,,,-99.99,,2013-01-20 21:23:00,
2013-01-20 14:33:00,34.0,8.0,-100.00,NW,310,9.0,12.0,32,-99.99,,,-99.99,,2013-01-20 21:33:00,
2013-01-20 14:43:00,34.0,8.0,-100.00,WNW,285,8.0,11.0,32,-99.99,,,-99.99,,2013-01-20 21:43:00,
2013-01-20 14:52:00,35.0,8.0,-100.00,West,275,6.0,9.0,32,-99.99,,,-99.99,,2013-01-20 21:52:00,
2013-01-20 15:03:00,35.0,8.0,-100.00,NW,325,6.0,9.0,32,-99.99,,,-99.99,,2013-01-20 22:03:00,
2013-01-20 15:12:00,35.0,8.0,-100.00,NNW,340,6.0,10.0,32,-99.99,,,-99.99,,2013-01-20 22:12:00,
2013-01-20 15:22:00,34.0,8.0,-100.00,WNW,295,6.0,9.0,32,-99.99,,,-99.99,,2013-01-20 22:22:00,
2013-01-20 15:33:00,34.0,8.0,-100.00,WNW,300,6.0,9.0,32,-99.99,,,-99.99,,2013-01-20 22:33:00,
2013-01-20 15:43:00,34.0,8.0,-100.00,NNW,335,7.0,11.0,32,-99.99,,,-99.99,,2013-01-20 22:43:00,
2013-01-20 15:52:00,34.0,8.0,-100.00,NW,315,6.0,9.0,32,-99.99,,,-99.99,,2013-01-20 22:52:00,
2013-01-20 16:03:00,34.0,8.0,-100.00,NNW,340,6.0,9.0,32,-99.99,,,-99.99,,2013-01-20 23:03:00,
2013-01-20 16:12:00,34.0,8.0,-100.00,NNW,330,6.0,8.0,32,-99.99,,,-99.99,,2013-01-20 23:12:00,
2013-01-20 16:23:00,34.0,8.0,-100.00,NW,305,5.0,7.0,32,-99.99,,,-99.99,,2013-01-20 23:23:00,
2013-01-20 16:33:00,34.0,8.0,-100.00,WNW,295,2.0,6.0,32,-99.99,,,-99.99,,2013-01-20 23:33:00,
2013-01-20 16:42:00,34.0,8.0,-100.00,NNW,335,2.0,4.0,32,-99.99,,,-99.99,,2013-01-20 23:42:00,
2013-01-20 16:52:00,34.0,8.0,-100.00,NW,325,2.0,3.0,32,-99.99,,,-99.99,,2013-01-20 23:52:00,
2013-01-20 17:03:00,33.0,7.0,-100.00,NW,310,1.0,2.0,32,-99.99,,,-99.99,,2013-01-21 00:03:00,
2013-01-20 17:13:00,33.0,7.0,-100.00,NNW,335,1.0,2.0,33,-99.99,,,-99.99,,2013-01-21 00:13:00,
2013-01-20 17:22:00,30.0,5.0,-100.00,NNW,335,0.0,0.0,34,-99.99,,,-99.99,,2013-01-21 00:22:00,
2013-01-20 17:33:00,28.0,5.0,-100.00,SE,130,7.0,11.0,37,-99.99,,,-99.99,,2013-01-21 00:33:00,
2013-01-20 17:43:00,26.0,5.0,-100.00,SE,125,9.0,12.0,39,-99.99,,,-99.99,,2013-01-21 00:43:00,
2013-01-20 17:53:00,25.0,5.0,-100.00,SE,130,9.0,10.0,40,-99.99,,,-99.99,,2013-01-21 00:53:00,
2013-01-20 18:03:00,25.0,5.0,-100.00,SE,145,8.0,9.0,42,-99.99,,,-99.99,,2013-01-21 01:03:00,
2013-01-20 18:12:00,24.0,5.0,-100.00,SE,135,9.0,10.0,42,-99.99,,,-99.99,,2013-01-21 01:12:00,
2013-01-20 18:23:00,23.0,5.0,-100.00,SE,125,7.0,11.0,44,-99.99,,,-99.99,,2013-01-21 01:23:00,
2013-01-20 18:33:00,23.0,6.0,-100.00,SE,125,7.0,9.0,46,-99.99,,,-99.99,,2013-01-21 01:33:00,
2013-01-20 18:43:00,23.0,6.0,-100.00,SE,130,7.0,9.0,47,-99.99,,,-99.99,,2013-01-21 01:43:00,
2013-01-20 18:52:00,22.0,6.0,-100.00,ESE,110,6.0,8.0,48,-99.99,,,-99.99,,2013-01-21 01:52:00,
2013-01-20 19:03:00,22.0,6.0,-100.00,East,90,5.0,9.0,50,-99.99,,,-99.99,,2013-01-21 02:03:00,
2013-01-20 19:12:00,21.0,6.0,-100.00,ESE,110,5.0,9.0,50,-99.99,,,-99.99,,2013-01-21 02:12:00,
2013-01-20 19:23:00,20.0,6.0,-100.00,ESE,105,7.0,7.0,53,-99.99,,,-99.99,,2013-01-21 02:23:00,
2013-01-20 19:33:00,19.0,6.0,-100.00,ESE,105,7.0,8.0,55,-99.99,,,-99.99,,2013-01-21 02:33:00,
2013-01-20 19:43:00,19.0,6.0,-100.00,ESE,105,7.0,8.0,56,-99.99,,,-99.99,,2013-01-21 02:43:00,
2013-01-20 19:53:00,18.0,6.0,-100.00,ESE,120,6.0,7.0,59,-99.99,,,-99.99,,2013-01-21 02:53:00,
2013-01-20 20:03:00,18.0,7.0,-100.00,SE,125,8.0,9.0,61,-99.99,,,-99.99,,2013-01-21 03:03:00,
2013-01-20 20:12:00,18.0,7.0,-100.00,SE,130,9.0,9.0,61,-99.99,,,-99.99,,2013-01-21 03:12:00,
2013-01-20 20:23:00,18.0,8.0,-100.00,SE,140,7.0,9.0,61,-99.99,,,-99.99,,2013-01-21 03:23:00,
2013-01-20 20:33:00,19.0,8.0,-100.00,SE,140,6.0,8.0,61,-99.99,,,-99.99,,2013-01-21 03:33:00,
2013-01-20 20:43:00,18.0,8.0,-100.00,ENE,65,3.0,8.0,62,-99.99,,,-99.99,,2013-01-21 03:43:00,
2013-01-20 20:52:00,17.0,7.0,-100.00,SE,130,1.0,3.0,63,-99.99,,,-99.99,,2013-01-21 03:52:00,
2013-01-20 21:03:00,17.0,8.0,-100.00,ESE,110,1.0,2.0,64,-99.99,,,-99.99,,2013-01-21 04:03:00,
2013-01-20 21:12:00,18.0,8.0,-100.00,East,100,2.0,2.0,64,-99.99,,,-99.99,,2013-01-21 04:12:00,
2013-01-20 21:23:00,17.0,7.0,-100.00,SE,125,1.0,4.0,65,-99.99,,,-99.99,,2013-01-21 04:23:00,
2013-01-20 21:32:00,16.0,7.0,-100.00,SE,135,0.0,2.0,65,-99.99,,,-99.99,,2013-01-21 04:32:00,
2013-01-20 21:42:00,15.0,6.0,-100.00,South,190,2.0,2.0,66,-99.99,,,-99.99,,2013-01-21 04:42:00,
2013-01-20 21:52:00,15.0,6.0,-100.00,SSW,205,1.0,2.0,68,-99.99,,,-99.99,,2013-01-21 04:52:00,
2013-01-20 22:03:00,14.0,6.0,-100.00,SSW,210,1.0,2.0,69,-99.99,,,-99.99,,2013-01-21 05:03:00,
2013-01-20 22:12:00,14.0,6.0,-100.00,South,190,2.0,3.0,69,-99.99,,,-99.99,,2013-01-21 05:12:00,
2013-01-20 22:22:00,13.0,6.0,-100.00,SSW,195,3.0,6.0,70,-99.99,,,-99.99,,2013-01-21 05:22:00,
2013-01-20 22:33:00,12.0,5.0,-100.00,South,170,1.0,6.0,71,-99.99,,,-99.99,,2013-01-21 05:33:00,
2013-01-20 22:42:00,11.0,4.0,-100.00,WSW,250,3.0,3.0,71,-99.99,,,-99.99,,2013-01-21 05:42:00,
2013-01-20 22:52:00,11.0,4.0,-100.00,SW,230,3.0,4.0,72,-99.99,,,-99.99,,2013-01-21 05:52:00,
2013-01-20 23:03:00,11.0,4.0,-100.00,SSW,210,4.0,4.0,72,-99.99,,,-99.99,,2013-01-21 06:03:00,
2013-01-20 23:12:00,11.0,4.0,-100.00,SW,225,4.0,5.0,73,-99.99,,,-99.99,,2013-01-21 06:12:00,
2013-01-20 23:23:00,10.0,3.0,-100.00,SSW,205,2.0,4.0,73,-99.99,,,-99.99,,2013-01-21 06:23:00,
2013-01-20 23:33:00,11.0,4.0,-100.00,SSW,210,2.0,3.0,73,-99.99,,,-99.99,,2013-01-21 06:33:00,
2013-01-20 23:43:00,10.0,4.0,-100.00,SW,225,4.0,4.0,74,-99.99,,,-99.99,,2013-01-21 06:43:00,
2013-01-20 23:52:00,10.0,4.0,-100.00,SSW,210,6.0,7.0,74,-99.99,,,-99.99,,2013-01-21 06:52:00,